GAOFEN 13-02

Last updated on Tue Nov 21 2023 00:02:41 GMT+0000 (Coordinated Universal Time)

1 55912U 23036A 23324.53616361 -.00000229 00000+0 00000+0 0 9993 2 55912 2.4921 302.3580 0004379 295.0358 161.6332 1.00269224 2671
UTC large
Height (km)
Speed (km/s)
/
Latitude / Longitude
Inclination (degrees)
Orbital Period (minutes)
Azimuth
Elevation
Range (km)
Doppler Factor

Next 0 passes for location: London (51.5072 / 0.1276)

Sorry there are no passes over London.